GFSNGP_prec_cloud_195.txt.gz
Cloud_Cover
5 5 7 98 100 94 90 100 100 97 94 100 91 98 16 100 7 3 46 90 5 5 3 0 4 0 0 0 0 0 0 0 0 0 3 21 75 87 53 100 100 93 100 100
5 5 6 6 5 5 19 100 100 100 96 100 100 99 100 100 6 1 4 75 90 39 5 1 5 5 5 0 0 0 0 0 1 0 2 0 94 100 5 5 20 47 100 100
5 31 66 28 83 100 100 100 100 100 100 100 89 10 90 100 100 100 96 84 100 100 82 5 1 12 54 4 0 0 0 0 0 4 16 2 5 22 54 6 34 5 4 5
5 6 10 1 9 78 90 100 89 70 94 14 16 97 92 100 83 100 100 92 58 78 100 90 4 5 5 5 5 11 16 26 25 2 34 22 1 0 0 18 10 0 0 0
5 6 15 8 98 10 99 100 12 5 54 37 91 41 89 25 33 86 87 98 93 61 46 59 5 34 12 18 23 26 38 82 72 28 17 61 48 47 31 52 54 79 34 0
18 63 98 100 97 31 45 89 34 90 4 0 1 8 60 83 98 100 93 83 76 100 100 100 100 94 69 93 100 61 86 100 100 100 100 93 51 15 52 4 5 0 0 0
100 83 98 98 36 3 79 100 44 70 52 16 80 67 98 98 100 100 100 100 61 63 100 100 100 100 79 7 16 65 100 99 99 100 100 100 100 85 35 76 29 1 17 45
98 82 42 91 99 80 100 66 80 98 75 52 44 48 21 79 100 99 100 100 100 90 32 100 100 100 100 99 23 86 88 28 40 50 36 35 5 5 100 100 100 100 100 100
23 10 34 67 36 82 78 79 25 100 86 41 4 5 49 97 99 95 30 26 100 100 60 90 100 100 100 100 99 5 57 78 9 28 14 5 68 94 100 100 100 100 100 100
80 83 53 5 12 41 13 5 5 63 70 56 14 3 9 18 100 100 100 100 90 76 100 100 91 69 100 100 100 62 30 14 21 14 7 33 100 100 100 100 100 100 100 100
48 82 96 11 11 25 4 4 1 2 6 5 5 0 0 3 35 83 100 100 100 100 100 100 100 100 100 100 100 100 44 63 62 23 7 31 89 100 100 100 100 100 100 100
93 64 92 36 35 72 76 65 46 72 81 60 76 5 4 4 1 1 80 69 64 95 100 100 100 100 100 100 100 94 46 64 30 95 5 100 88 100 100 100 100 100 100 100
99 91 100 100 100 100 94 100 13 97 99 14 57 99 8 43 17 5 0 0 3 7 100 100 74 100 100 100 100 100 94 99 79 5 5 6 22 69 100 100 100 100 100 100
100 100 100 100 100 100 100 100 100 100 98 79 61 100 28 100 18 68 74 9 3 1 0 3 4 24 71 100 72 99 100 100 20 60 5 5 16 96 100 100 100 100 100 100
41 59 61 60 61 87 73 100 100 88 96 100 46 61 92 84 36 90 14 93 81 45 1 1 0 0 0 2 7 91 100 94 39 5 5 5 2 100 98 100 100 100 100 100
7 72 94 85 100 100 100 100 100 100 100 100 100 98 66 41 78 82 51 8 52 94 100 93 27 31 15 0 0 1 29 8 0 0 0 2 21 14 11 88 92 100 100 100
6 54 76 100 100 100 100 100 100 100 100 100 100 100 100 100 75 82 71 58 84 13 47 100 84 10 16 0 0 0 0 0 0 0 0 0 2 4 9 5 5 84 100 100
8 100 100 99 100 100 100 100 100 100 100 100 100 100 100 100 100 100 100 98 82 7 68 91 65 89 1 0 22 0 2 0 0 4 5 5 4 4 30 13 4 3 11 42
100 100 99 100 97 100 100 100 100 100 100 100 100 100 100 100 100 94 98 100 100 100 21 75 82 51 68 17 60 44 6 5 5 5 5 5 5 5 21 5 22 36 76 99
100 100 100 96 100 92 100 100 100 100 100 100 100 100 100 100 100 100 98 100 100 98 100 47 17 89 26 91 100 95 30 8 5 6 7 15 71 84 9 6 26 97 97 92
100 100 99 58 13 100 100 100 100 100 100 100 100 100 100 100 100 100 100 89 92 99 100 100 100 98 85 99 100 100 100 77 27 5 31 58 97 26 48 99 56 4 7 12
100 100 98 69 17 86 81 100 100 100 100 100 100 100 100 100 100 100 100 100 100 100 100 100 100 99 90 100 100 100 100 100 100 63 98 66 39 35 14 69 66 0 64 7
100 100 96 86 56 38 90 22 91 92 100 100 100 100 100 100 100 100 100 100 100 100 100 100 100 100 100 95 36 67 95 100 94 72 95 72 37 32 54 69 57 0 1 92
100 100 100 39 100 100 73 5 9 100 100 100 100 99 100 100 100 100 100 100 100 100 100 100 100 96 99 43 100 100 100 100 83 91 91 77 35 66 47 71 22 0 0 15
50 100 100 99 100 100 100 73 5 19 92 100 100 100 100 98 100 100 100 100 100 100 100 100 100 100 100 100 100 100 100 100 100 100 100 73 6 5 100 45 59 52 23 30
6 52 54 74 71 100 98 90 23 5 47 100 100 93 100 100 94 98 97 100 100 100 100 100 100 100 100 100 100 100 100 100 100 100 100 100 100 99 61 13 91 100 63 40
5 5 64 100 80 48 70 98 100 100 42 82 100 100 98 45 38 97 100 98 100 100 100 100 100 100 100 100 100 100 100 100 100 100 100 100 100 100 100 100 100 100 100 100

GFSNGP_prec_cloud_198.txt.gz
Cloud_Cover
2 5 2 25 91 98 100 99 35 5 3 26 51 45 97 86 0 85 88 87 0 0 61 0 0 0 0 0 0 0 0 0 0 0 0 0 0 0 2 20 100 100 100 100
5 4 5 1 1 17 100 100 90 87 26 0 24 66 27 72 96 100 100 100 100 1 0 0 1 0 0 0 0 0 0 0 0 0 0 0 0 0 1 16 94 95 37 59
0 2 3 2 5 72 59 8 28 18 4 0 1 0 59 100 100 100 100 100 100 34 0 0 5 5 2 0 0 0 0 0 0 0 0 0 4 0 0 4 28 100 21 88
1 3 2 1 78 22 59 97 76 98 83 48 4 4 99 100 100 100 100 100 100 100 77 5 4 5 5 5 0 0 0 0 0 0 0 0 33 3 0 0 5 24 5 0
3 5 4 74 45 10 10 18 61 5 14 3 2 6 100 100 100 100 100 100 100 100 96 43 67 5 69 100 51 39 0 0 0 0 6 32 67 20 4 0 0 1 4 1
5 55 76 26 10 40 100 100 6 55 100 40 35 11 98 100 100 100 100 100 100 100 100 94 60 95 100 100 100 100 100 100 99 100 76 27 19 7 4 2 0 0 0 0
5 5 86 5 5 70 100 11 65 100 100 100 99 76 20 100 100 100 100 100 100 100 100 43 80 13 14 5 28 61 94 92 100 100 100 100 65 21 7 0 0 1 0 95
5 4 23 30 7 17 50 100 62 61 90 92 28 20 33 82 42 99 100 100 100 100 100 100 100 47 32 49 97 36 100 100 64 52 63 64 70 33 11 5 5 58 94 100
0 3 7 3 12 20 20 89 28 49 91 100 100 22 0 0 28 51 80 90 100 100 100 35 23 85 5 20 100 100 70 98 98 95 6 98 100 100 100 100 98 100 100 100
2 2 7 3 5 3 1 0 0 0 1 5 0 0 0 0 1 78 64 0 5 42 100 55 6 94 100 87 39 72 100 58 12 92 100 87 100 100 100 100 100 100 100 100
2 5 28 60 99 48 30 4 10 16 18 1 1 0 0 0 10 20 4 0 0 72 64 32 18 25 20 13 97 81 100 60 57 62 98 82 100 12 63 100 100 100 100 100
53 55 100 75 100 100 100 97 92 51 27 10 87 5 52 0 1 14 51 3 0 0 35 98 48 17 94 99 49 75 100 100 100 97 95 48 99 100 84 88 100 100 100 100
14 6 2 5 4 25 93 53 99 100 100 63 6 48 9 6 5 7 11 6 66 0 0 100 100 63 5 99 80 39 100 100 100 92 100 100 100 100 100 100 100 100 100 100
24 22 16 34 78 48 98 100 100 88 47 94 99 88 98 62 5 5 19 80 83 84 88 18 100 100 100 78 100 100 100 94 60 91 58 70 99 100 99 100 96 7 78 100
5 2 35 100 100 100 100 100 100 100 100 99 96 98 87 88 37 12 74 98 100 37 48 100 100 78 100 100 100 100 100 100 100 92 93 55 45 100 100 99 29 5 27 99
0 5 72 100 100 97 100 100 100 100 100 100 100 100 100 100 100 100 97 50 8 5 33 46 100 100 100 76 100 100 90 97 100 100 100 100 71 100 100 94 40 5 5 38
0 25 100 100 78 32 78 100 100 100 100 100 100 100 100 100 100 100 100 100 26 7 6 19 6 45 28 100 100 100 96 100 100 100 100 62 84 67 98 100 100 100 5 5
0 56 100 100 100 94 100 100 100 100 100 100 100 100 100 100 100 100 97 96 50 46 20 5 5 5 19 99 90 13 30 84 100 100 100 100 33 5 5 44 96 83 44 6
0 100 100 100 100 100 100 100 100 100 100 100 100 100 100 100 100 100 95 63 70 62 95 81 26 16 5 5 6 10 36 98 85 42 7 4 67 65 7 6 1 5 23 16
2 100 100 100 100 40 67 82 100 100 100 100 100 100 100 100 100 100 100 100 100 100 86 63 93 38 5 5 14 5 3 0 52 100 85 63 42 43 46 91 11 51 91 1
3 88 100 100 69 56 6 91 21 87 100 100 100 100 100 100 100 100 100 100 100 100 100 100 100 95 99 100 60 38 54 100 100 82 94 73 6 48 93 27 4 91 4 6
0 39 100 100 100 31 5 5 12 13 98 100 100 100 100 100 100 100 100 100 100 100 100 100 100 100 100 100 100 100 96 83 82 76 100 100 32 15 100 8 93 4 5 96
0 4 83 100 100 7 85 70 23 16 5 44 99 100 100 100 86 100 100 100 100 100 100 100 100 100 94 100 100 100 88 100 99 100 86 93 87 83 80 75 71 5 10 94
0 0 4 96 100 85 82 32 29 15 14 48 100 100 100 100 100 99 100 100 100 100 100 100 100 100 96 100 100 100 100 100 90 92 98 93 94 8 100 100 100 99 96 100
4 2 5 5 89 100 68 47 19 99 76 24 49 100 100 100 98 58 70 100 100 100 100 100 100 100 100 100 100 100 100 100 100 100 100 100 100 100 100 100 100 100 100 100
5 4 5 2 5 7 87 81 100 95 55 8 7 42 100 100 99 75 5 66 100 100 100 100 100 100 100 100 100 100 100 100 100 100 100 100 100 100 100 100 100 100 100 100
12 5 5 8 7 5 77 63 89 94 75 82 47 31 25 82 100 100 82 6 23 58 48 100 100 100 100 100 100 100 100 100 100 100 100 100 100 100 100 100 100 100 100 100

GFSNGP_prec_cloud_201.txt.gz
Cloud_Cover
0 0 0 0 1 0 5 5 96 90 100 58 76 73 45 17 100 85 100 100 100 100 100 100 100 100 100 100 100 93 0 0 0 0 0 0 0 0 0 0 0 0 0 100
0 0 0 0 0 0 0 5 5 2 34 94 6 18 97 100 100 100 100 100 100 100 100 100 100 100 100 100 100 100 100 100 0 0 0 0 0 0 0 0 0 0 0 5
0 0 0 0 0 0 0 1 0 21 92 19 4 5 100 100 100 100 100 100 100 100 100 100 100 100 100 100 100 100 99 100 0 0 0 0 0 0 0 0 0 0 0 0
0 0 0 0 0 0 0 0 4 28 9 27 21 100 100 21 99 100 100 100 100 100 100 100 100 100 100 100 100 100 100 100 0 0 0 0 16 25 20 1 0 0 0 0
0 0 0 0 0 0 0 0 21 96 46 73 16 43 99 100 95 100 100 100 100 100 100 100 100 100 100 100 100 100 100 96 14 31 21 66 18 86 98 0 0 0 0 0
0 0 0 0 0 0 0 0 0 1 59 36 6 83 94 55 100 100 100 100 100 100 100 100 100 100 100 100 100 100 95 94 8 0 93 69 28 46 84 14 0 0 0 0
0 0 0 0 0 0 0 6 0 4 84 100 100 100 72 100 94 100 100 100 100 100 100 100 100 100 100 100 100 100 100 100 100 100 50 46 0 0 0 0 1 0 52 100
0 0 2 0 0 0 19 2 0 0 0 96 93 14 46 100 100 100 100 100 100 100 100 100 100 100 100 100 100 100 59 33 80 95 32 40 93 54 7 50 71 88 100 100
0 0 0 3 5 34 96 10 20 5 5 4 50 65 97 84 100 100 100 100 100 100 100 100 100 100 64 100 91 100 75 32 34 37 94 100 100 97 99 65 95 100 100 100
0 0 0 5 5 4 1 16 98 100 38 0 0 5 97 100 26 46 90 100 100 100 100 100 100 100 100 63 63 15 90 86 64 100 89 98 17 99 100 4 74 100 100 100
0 0 0 5 1 1 4 2 5 5 5 6 7 3 5 29 5 6 3 4 43 76 69 100 100 100 100 100 6 25 21 100 96 100 100 100 35 10 19 5 74 100 100 100
0 0 0 0 0 66 70 10 6 6 16 5 20 53 12 36 7 16 5 5 4 0 0 65 100 100 36 100 100 77 9 29 83 30 92 100 96 84 88 80 57 79 100 100
0 0 0 0 12 100 100 100 14 100 100 99 21 92 100 100 92 47 54 5 5 5 4 0 3 74 100 100 100 100 100 100 87 100 5 9 70 100 93 57 100 100 100 100
0 0 1 0 99 100 100 26 100 73 99 100 100 100 100 100 90 26 5 5 5 5 5 7 1 0 0 0 0 0 5 5 5 5 56 4 5 8 91 100 100 100 89 100
0 0 0 0 98 100 27 96 100 100 100 100 100 100 100 100 99 98 99 40 5 62 31 32 81 11 8 2 0 0 0 91 37 5 5 8 5 5 6 97 100 100 35 86
0 0 0 0 100 78 71 100 100 100 100 100 100 100 100 100 100 100 83 99 90 60 91 100 5 5 5 19 86 69 0 8 100 62 12 1 21 4 2 10 79 100 84 42
0 0 0 0 100 13 98 100 100 100 100 100 100 100 100 100 100 100 100 100 100 98 23 37 18 12 6 6 15 79 100 83 99 100 38 20 0 0 3 2 5 76 68 100
0 0 0 0 100 84 16 99 100 100 100 100 100 100 100 100 100 100 100 100 100 100 82 88 58 25 57 17 19 26 5 7 73 96 100 66 42 5 4 2 5 5 5 9
0 0 0 0 96 92 9 58 100 100 100 100 100 100 100 100 100 100 100 100 100 100 100 96 99 98 42 5 12 5 3 13 16 7 0 45 29 92 86 48 27 3 36 35
0 0 0 0 64 100 65 50 6 65 88 72 100 52 84 99 100 100 100 100 100 100 100 100 100 100 85 23 90 87 17 5 2 1 0 100 34 99 99 81 38 8 34 36
0 0 0 0 10 91 100 23 12 4 5 12 23 69 100 64 99 100 100 100 100 100 100 100 100 100 100 100 100 72 100 100 75 66 100 58 34 100 99 98 100 90 100 94
0 0 0 0 18 96 99 100 76 31 23 5 2 5 13 32 56 100 100 100 100 100 100 100 100 100 100 98 100 90 100 100 100 91 95 67 99 72 51 62 56 56 46 48
0 0 0 0 0 4 24 100 98 10 25 49 4 5 4 6 71 88 100 99 100 100 100 100 100 100 100 100 100 100 100 100 100 100 100 73 82 77 98 92 70 63 16 18
0 0 0 0 0 0 19 96 100 97 17 5 5 4 2 3 43 100 100 94 62 100 100 100 100 100 100 100 100 100 100 100 100 100 100 100 100 100 100 100 89 97 56 90
0 0 0 0 1 4 0 0 46 100 98 14 19 12 5 3 9 92 72 62 44 42 81 97 100 100 100 100 100 100 100 100 100 100 100 100 100 100 100 100 100 100 97 96
3 5 3 4 4 1 5 4 0 2 35 80 94 100 100 61 12 5 11 97 99 28 5 5 5 44 100 100 100 100 100 100 100 100 100 100 100 100 100 100 100 100 100 100
5 94 96 6 0 5 5 27 10 13 4 21 5 11 98 100 100 83 44 4 3 22 62 28 1 3 5 12 70 100 100 100 99 100 100 100 100 100 100 100 100 100 100 100

GFSNGP_prec_cloud_204.txt.gz
Cloud_Cover
0 0 0 0 0 0 5 8 76 56 38 67 5 12 0 3 87 7 100 100 100 100 100 100 100 100 100 100 100 100 100 100 100 100 96 100 84 75 4 73 0 0 0 0
0 0 0 0 0 0 0 0 0 0 0 23 0 4 2 2 55 99 100 100 100 100 100 100 100 100 100 100 100 100 100 100 100 100 100 100 100 100 82 12 0 0 0 0
0 0 0 0 0 0 0 0 0 0 0 0 0 0 0 10 6 44 99 99 100 100 100 100 100 100 100 100 100 100 100 100 100 100 100 100 100 100 60 5 0 0 0 0
0 0 0 0 0 0 0 0 0 0 0 0 0 0 0 0 1 6 95 100 100 100 100 100 100 100 100 100 100 100 100 100 100 100 100 100 100 100 29 3 0 0 0 0
0 0 0 0 0 0 0 0 0 0 0 0 0 0 0 0 3 0 5 93 100 100 100 100 100 100 100 100 100 100 100 100 100 100 100 100 100 100 87 99 55 0 1 3
0 0 0 0 0 0 0 0 0 0 0 0 0 0 0 0 0 3 15 93 100 100 100 100 100 100 100 100 100 100 100 100 100 100 100 100 100 67 26 68 22 0 2 3
0 0 0 0 0 0 0 0 0 0 0 0 0 0 0 0 0 2 5 86 100 100 100 100 100 100 100 100 100 100 100 100 100 100 100 100 100 64 76 78 74 54 78 62
0 0 0 0 0 0 0 0 0 3 4 5 4 4 5 4 0 2 5 10 95 100 100 100 100 100 100 100 100 100 100 100 100 100 100 100 100 52 45 11 39 84 100 94
0 0 0 0 0 0 1 0 0 1 2 5 5 2 0 0 0 0 1 3 21 100 100 100 100 100 100 100 100 100 100 100 100 100 100 100 100 100 98 32 32 56 99 100
0 0 0 0 0 0 5 1 23 5 5 18 5 5 5 5 2 0 0 0 3 55 100 100 100 100 100 100 100 100 100 100 100 100 94 30 19 6 36 98 67 86 100 100
2 0 0 0 0 0 0 4 19 40 5 7 5 5 5 3 0 0 0 0 4 3 23 100 100 100 100 100 100 100 100 100 100 100 16 83 81 3 14 18 13 25 51 100
5 0 0 0 0 0 0 95 52 5 59 58 99 94 69 28 30 48 9 0 2 4 5 20 85 100 100 100 99 100 100 100 100 61 75 98 80 95 93 86 95 75 85 75
5 2 0 0 0 0 0 98 5 95 100 100 100 100 100 100 100 100 18 2 5 10 5 28 5 5 6 79 100 98 94 8 8 7 28 35 5 7 98 87 100 100 100 100
5 2 0 0 0 0 0 44 5 93 100 100 100 100 100 100 100 81 74 62 26 18 2 7 30 5 80 77 13 6 20 40 3 4 5 3 5 4 68 5 4 4 80 87
5 0 0 0 0 0 0 28 59 32 100 100 100 100 100 100 100 100 100 100 96 85 98 21 19 42 41 72 23 35 0 4 2 2 4 5 5 5 5 5 5 5 6 69
0 0 0 0 0 0 0 1 100 61 100 100 100 100 100 100 100 100 100 100 100 100 100 46 14 30 8 4 4 4 0 0 1 2 0 5 5 5 5 13 9 12 48 100
5 4 0 0 0 0 0 3 95 86 100 100 96 98 100 100 100 100 100 100 100 100 100 100 100 89 98 46 6 3 0 0 0 0 13 1 1 5 14 98 99 100 99 97
59 78 9 0 0 0 0 2 57 44 20 60 5 100 100 100 100 100 100 100 100 100 100 100 100 95 61 58 23 10 5 5 4 5 5 99 80 0 0 0 0 5 2 5
97 100 39 4 0 0 0 2 73 100 5 5 6 20 100 88 91 100 100 100 100 100 100 100 100 74 81 57 93 87 9 2 5 5 5 5 6 92 73 45 4 5 5 29
98 100 40 5 0 0 1 5 71 96 78 8 1 6 48 100 54 100 100 100 100 100 100 100 100 100 100 89 100 92 39 15 5 5 5 5 14 5 1 82 75 40 24 3
100 100 74 2 5 0 0 1 4 93 81 37 5 5 18 5 46 73 100 100 100 100 100 100 100 100 100 100 100 100 100 55 51 24 100 67 31 10 22 17 2 2 1 46
100 100 27 3 5 2 0 0 0 5 14 100 25 11 14 6 2 1 50 100 100 100 100 100 100 100 100 100 100 100 100 100 100 100 100 88 72 60 100 45 99 100 99 47
50 42 22 96 3 4 0 0 0 4 5 16 98 40 5 5 3 13 13 27 89 98 100 100 100 100 100 100 100 100 100 100 100 100 100 100 100 100 100 99 86 100 76 32
100 66 100 38 2 3 2 0 1 1 3 6 5 80 100 65 16 5 4 8 32 74 47 90 99 95 100 100 100 100 100 100 100 100 100 100 100 100 100 100 100 100 100 100
100 100 100 27 6 5 5 5 0 5 5 3 1 56 100 100 85 5 5 2 3 2 1 23 84 89 18 37 86 94 93 99 100 100 100 100 100 100 100 100 100 100 100 100
100 100 99 100 100 5 5 5 5 2 5 60 88 69 27 86 98 64 16 5 5 5 5 6 3 4 25 70 29 5 25 73 89 99 100 100 100 100 100 100 100 100 100 100
100 100 100 100 100 12 12 5 5 5 4 81 100 100 100 82 5 12 5 6 5 4 4 1 1 5 23 29 32 31 20 7 23 72 98 98 100 100 100 100 100 100 100 100